This is the latest recevied weather packets stored in our database for station/object NC4J. If no packets are shown the sender has not sent any weather packets the latest 10 day(s).
| Time | Temp. | Humidity | Pressure | Rain* | Wind** | Luminosity | Snow |
|---|---|---|---|---|---|---|---|
| 1777848400 | 18.89° C | 33% | 1016.4 hPa | 0 mm | - | 77 W/m² | - |
| 1777848098 | 18.89° C | 32% | 1016.4 hPa | 0 mm | - | 68 W/m² | - |
| 1777847796 | 18.89° C | 31% | 1016.5 hPa | 0 mm | - | 38 W/m² | - |
| 1777847491 | 18.89° C | 31% | 1016.2 hPa | 0 mm | - | 63 W/m² | - |
| 1777847189 | 18.89° C | 31% | 1016.4 hPa | 0 mm | - | 39 W/m² | - |
| 1777846887 | 18.89° C | 34% | 1016.3 hPa | 0 mm | - | 46 W/m² | - |
| 1777846585 | 18.89° C | 34% | 1016.4 hPa | 0 mm | - | 101 W/m² | - |
| 1777846282 | 19.44° C | 31% | 1016.3 hPa | 0 mm | - | 99 W/m² | - |
| 1777845979 | 18.89° C | 32% | 1016.3 hPa | 0 mm | - | 121 W/m² | - |
| 1777845675 | 19.44° C | 33% | 1016.5 hPa | 0 mm | - | 139 W/m² | - |
| 1777845372 | 19.44° C | 29% | 1016.4 hPa | 0 mm | - | 169 W/m² | - |
| 1777845069 | 18.89° C | 32% | 1016.4 hPa | 0 mm | - | 305 W/m² | - |
| 1777844768 | 18.89° C | 30% | 1016.2 hPa | 0 mm | - | 278 W/m² | - |
| 1777844463 | 19.44° C | 32% | 1016.5 hPa | 0 mm | - | 332 W/m² | - |
| 1777844162 | 18.89° C | 33% | 1016.5 hPa | 0 mm | - | 346 W/m² | - |
| 1777843858 | 18.33° C | 32% | 1016.6 hPa | 0 mm | - | 304 W/m² | - |
| 1777843556 | 17.78° C | 32% | 1016.6 hPa | 0 mm | - | 33 W/m² | - |
| 1777843253 | 18.33° C | 32% | 1016.6 hPa | 0 mm | - | 73 W/m² | - |
| 1777842950 | 18.33° C | 33% | 1016.7 hPa | 0 mm | - | 91 W/m² | - |
| 1777842645 | 18.33° C | 33% | 1016.8 hPa | 0 mm | - | 106 W/m² | - |
| 1777842343 | 18.33° C | 32% | 1016.8 hPa | 0 mm | - | 35 W/m² | - |
| 1777842038 | 18.33° C | 36% | 1016.7 hPa | 0 mm | - | 34 W/m² | - |
| 1777841735 | 18.33° C | 33% | 1016.9 hPa | 0 mm | - | 34 W/m² | - |
| 1777841432 | 17.78° C | 33% | 1016.9 hPa | 0 mm | - | 34 W/m² | - |
| 1777841129 | 17.22° C | 34% | 1017 hPa | 0 mm | - | 35 W/m² | - |
* Rain latest hour (hover to see other rain measurements)
** Current wind speed in m/s (hover to see current wind gust speed)